Time,TemperatureF,DewpointF,PressureIn,WindDirection,WindDirectionDegrees,WindSpeedMPH,WindSpeedGustMPH,Humidity,HourlyPrecipIn,Conditions,Clouds,dailyrainin,SoftwareType,DateUTC
2013-05-22 00:06:00,67.0,66.0,29.85,SE,134,0.0,3.0,96,0.05,,,0.01,weatherlink.com 1.10,2013-05-22 05:06:00,
2013-05-22 00:21:00,67.0,66.0,29.81,NNE,27,1.0,4.0,96,0.04,,,0.01,weatherlink.com 1.10,2013-05-22 05:21:00,
2013-05-22 00:36:00,67.2,66.0,29.79,SE,142,5.0,9.0,96,0.03,,,0.02,weatherlink.com 1.10,2013-05-22 05:36:00,
2013-05-22 00:51:00,67.5,66.0,29.75,South,183,4.0,15.0,95,0.03,,,0.03,weatherlink.com 1.10,2013-05-22 05:51:00,
2013-05-22 01:06:00,67.8,66.0,29.80,SSW,200,0.0,5.0,93,0.02,,,0.03,weatherlink.com 1.10,2013-05-22 06:06:00,
2013-05-22 01:21:00,67.7,66.0,29.79,South,187,0.0,7.0,93,0.03,,,0.04,weatherlink.com 1.10,2013-05-22 06:21:00,
2013-05-22 01:36:00,67.2,66.0,29.79,NNW,338,0.0,3.0,94,0.02,,,0.04,weatherlink.com 1.10,2013-05-22 06:36:00,
2013-05-22 01:51:00,67.2,66.0,29.79,NNW,338,0.0,2.0,95,0.02,,,0.05,weatherlink.com 1.10,2013-05-22 06:51:00,
2013-05-22 02:06:00,67.3,66.0,29.81,South,176,1.0,4.0,95,0.02,,,0.05,weatherlink.com 1.10,2013-05-22 07:06:00,
2013-05-22 02:21:00,67.3,66.0,29.80,South,177,2.0,3.0,95,0.01,,,0.05,weatherlink.com 1.10,2013-05-22 07:21:00,
2013-05-22 02:36:00,66.9,66.0,29.79,South,177,1.0,2.0,95,0.02,,,0.06,weatherlink.com 1.10,2013-05-22 07:36:00,
2013-05-22 02:51:00,66.7,66.0,29.78,South,177,1.0,2.0,96,0.01,,,0.06,weatherlink.com 1.10,2013-05-22 07:51:00,
2013-05-22 03:06:00,66.7,66.0,29.78,South,177,0.0,2.0,96,0.02,,,0.07,weatherlink.com 1.10,2013-05-22 08:06:00,
2013-05-22 03:21:00,66.6,66.0,29.77,South,184,0.0,2.0,96,0.02,,,0.07,weatherlink.com 1.10,2013-05-22 08:21:00,
2013-05-22 03:36:00,66.3,65.0,29.77,South,182,0.0,2.0,96,0.01,,,0.07,weatherlink.com 1.10,2013-05-22 08:36:00,
2013-05-22 03:51:00,66.0,65.0,29.78,South,173,1.0,3.0,96,0.01,,,0.07,weatherlink.com 1.10,2013-05-22 08:51:00,
2013-05-22 04:06:00,65.9,65.0,29.78,South,173,0.0,2.0,96,0.01,,,0.08,weatherlink.com 1.10,2013-05-22 09:06:00,
2013-05-22 04:47:00,66.6,66.0,29.79,SSW,196,0.0,3.0,96,0.02,,,0.09,weatherlink.com 1.10,2013-05-22 09:47:00,
2013-05-22 05:06:00,66.6,66.0,29.80,WSW,245,0.0,1.0,96,0.01,,,0.09,weatherlink.com 1.10,2013-05-22 10:06:00,
2013-05-22 05:21:00,66.7,66.0,29.81,WSW,245,0.0,0.0,96,0.01,,,0.09,weatherlink.com 1.10,2013-05-22 10:21:00,
2013-05-22 05:36:00,67.1,66.0,29.82,WSW,245,0.0,2.0,97,0.01,,,0.09,weatherlink.com 1.10,2013-05-22 10:36:00,
2013-05-22 05:51:00,67.4,66.0,29.83,NW,314,0.0,4.0,96,0.00,,,0.09,weatherlink.com 1.10,2013-05-22 10:51:00,
2013-05-22 06:06:00,67.5,66.0,29.83,WNW,294,0.0,3.0,96,0.00,,,0.09,weatherlink.com 1.10,2013-05-22 11:06:00,
2013-05-22 06:21:00,67.6,67.0,29.84,WNW,290,0.0,2.0,96,0.01,,,0.10,weatherlink.com 1.10,2013-05-22 11:21:00,
2013-05-22 06:36:00,67.8,67.0,29.84,WNW,288,0.0,2.0,96,0.01,,,0.10,weatherlink.com 1.10,2013-05-22 11:36:00,
2013-05-22 06:51:00,68.0,67.0,29.85,WNW,290,0.0,2.0,96,0.01,,,0.10,weatherlink.com 1.10,2013-05-22 11:51:00,
2013-05-22 07:06:00,68.2,67.0,29.86,WNW,290,0.0,3.0,96,0.01,,,0.10,weatherlink.com 1.10,2013-05-22 12:06:00,
2013-05-22 07:21:00,68.3,67.0,29.86,NNE,31,3.0,5.0,96,0.00,,,0.10,weatherlink.com 1.10,2013-05-22 12:21:00,
2013-05-22 07:36:00,68.4,67.0,29.86,NE,51,0.0,4.0,96,0.01,,,0.11,weatherlink.com 1.10,2013-05-22 12:36:00,
2013-05-22 07:51:00,68.1,67.0,29.86,North,9,3.0,4.0,96,0.01,,,0.11,weatherlink.com 1.10,2013-05-22 12:51:00,
2013-05-22 08:06:00,67.8,67.0,29.87,NNE,19,2.0,3.0,96,0.01,,,0.11,weatherlink.com 1.10,2013-05-22 13:06:00,
2013-05-22 08:22:00,67.8,67.0,29.87,NNE,18,0.0,3.0,96,0.00,,,0.11,weatherlink.com 1.10,2013-05-22 13:22:00,
2013-05-22 08:37:00,68.2,67.0,29.88,NE,44,0.0,1.0,95,0.00,,,0.11,weatherlink.com 1.10,2013-05-22 13:37:00,
2013-05-22 08:52:00,68.4,67.0,29.88,NE,44,0.0,2.0,96,0.00,,,0.11,weatherlink.com 1.10,2013-05-22 13:52:00,
2013-05-22 09:07:00,68.6,68.0,29.88,NE,44,0.0,0.0,96,0.00,,,0.11,weatherlink.com 1.10,2013-05-22 14:07:00,
2013-05-22 09:22:00,68.6,68.0,29.89,NE,44,0.0,2.0,96,0.00,,,0.11,weatherlink.com 1.10,2013-05-22 14:22:00,
2013-05-22 09:37:00,68.8,68.0,29.89,NNE,29,2.0,3.0,96,0.00,,,0.11,weatherlink.com 1.10,2013-05-22 14:37:00,
2013-05-22 09:52:00,69.3,68.0,29.90,NNE,32,2.0,3.0,95,0.00,,,0.11,weatherlink.com 1.10,2013-05-22 14:52:00,
2013-05-22 10:07:00,69.9,68.0,29.90,North,355,1.0,3.0,94,0.00,,,0.11,weatherlink.com 1.10,2013-05-22 15:07:00,
2013-05-22 10:22:00,71.2,69.0,29.90,East,90,1.0,5.0,91,0.00,,,0.11,weatherlink.com 1.10,2013-05-22 15:22:00,
2013-05-22 10:37:00,72.3,70.0,29.91,SSE,157,0.0,3.0,93,0.01,,,0.12,weatherlink.com 1.10,2013-05-22 15:37:00,
2013-05-22 10:52:00,72.3,69.0,29.91,NNE,17,2.0,6.0,90,0.01,,,0.12,weatherlink.com 1.10,2013-05-22 15:52:00,
2013-05-22 11:07:00,74.0,71.0,29.90,South,183,2.0,5.0,89,0.01,,,0.12,weatherlink.com 1.10,2013-05-22 16:07:00,
2013-05-22 11:22:00,74.7,70.0,29.91,SE,128,0.0,5.0,85,0.01,,,0.12,weatherlink.com 1.10,2013-05-22 16:22:00,
2013-05-22 11:37:00,76.0,71.0,29.91,SW,217,0.0,5.0,85,0.00,,,0.12,weatherlink.com 1.10,2013-05-22 16:37:00,
2013-05-22 11:52:00,76.8,71.0,29.90,North,5,1.0,5.0,82,0.00,,,0.12,weatherlink.com 1.10,2013-05-22 16:52:00,
2013-05-22 12:07:00,77.3,71.0,29.90,South,190,2.0,6.0,82,0.00,,,0.12,weatherlink.com 1.10,2013-05-22 17:07:00,
2013-05-22 12:22:00,77.6,71.0,29.90,SSW,213,4.0,8.0,79,0.01,,,0.13,weatherlink.com 1.10,2013-05-22 17:22:00,
2013-05-22 12:37:00,77.9,72.0,29.90,SSE,150,1.0,9.0,82,0.01,,,0.13,weatherlink.com 1.10,2013-05-22 17:37:00,
2013-05-22 12:52:00,78.7,72.0,29.89,WNW,290,0.0,6.0,80,0.01,,,0.13,weatherlink.com 1.10,2013-05-22 17:52:00,
2013-05-22 13:07:00,78.8,73.0,29.89,SSW,196,2.0,5.0,81,0.00,,,0.13,weatherlink.com 1.10,2013-05-22 18:07:00,
2013-05-22 13:22:00,79.9,72.0,29.89,SSE,167,2.0,5.0,77,0.00,,,0.13,weatherlink.com 1.10,2013-05-22 18:22:00,
2013-05-22 13:37:00,79.8,72.0,29.88,NW,315,0.0,3.0,77,0.00,,,0.13,weatherlink.com 1.10,2013-05-22 18:37:00,
2013-05-22 13:52:00,81.8,74.0,29.88,WSW,238,1.0,6.0,77,0.00,,,0.13,weatherlink.com 1.10,2013-05-22 18:52:00,
2013-05-22 14:07:00,81.2,73.0,29.88,ESE,115,4.0,7.0,76,0.00,,,0.13,weatherlink.com 1.10,2013-05-22 19:07:00,
2013-05-22 14:22:00,82.3,74.0,29.88,WSW,238,0.0,5.0,77,0.00,,,0.13,weatherlink.com 1.10,2013-05-22 19:22:00,
2013-05-22 14:37:00,81.2,74.0,29.87,NNW,336,0.0,4.0,79,0.00,,,0.13,weatherlink.com 1.10,2013-05-22 19:37:00,
2013-05-22 14:52:00,82.1,74.0,29.87,SE,130,0.0,6.0,75,0.00,,,0.13,weatherlink.com 1.10,2013-05-22 19:52:00,
2013-05-22 15:07:00,82.1,73.0,29.86,SW,216,2.0,6.0,74,0.00,,,0.13,weatherlink.com 1.10,2013-05-22 20:07:00,
2013-05-22 15:22:00,81.7,73.0,29.86,ESE,123,1.0,5.0,75,0.00,,,0.13,weatherlink.com 1.10,2013-05-22 20:22:00,
2013-05-22 15:37:00,83.4,75.0,29.86,SW,219,4.0,7.0,75,0.00,,,0.13,weatherlink.com 1.10,2013-05-22 20:37:00,
2013-05-22 15:52:00,82.9,73.0,29.85,SSW,204,3.0,7.0,73,0.00,,,0.13,weatherlink.com 1.10,2013-05-22 20:52:00,
2013-05-22 16:07:00,83.4,74.0,29.85,South,190,4.0,8.0,73,0.00,,,0.13,weatherlink.com 1.10,2013-05-22 21:07:00,
2013-05-22 16:22:00,84.1,74.0,29.84,SSE,160,1.0,7.0,72,0.00,,,0.13,weatherlink.com 1.10,2013-05-22 21:22:00,
2013-05-22 16:37:00,83.1,74.0,29.84,South,188,1.0,7.0,73,0.00,,,0.13,weatherlink.com 1.10,2013-05-22 21:37:00,
2013-05-22 16:52:00,83.5,73.0,29.84,SSW,199,2.0,4.0,70,0.01,,,0.14,weatherlink.com 1.10,2013-05-22 21:52:00,
2013-05-22 17:08:00,84.8,74.0,29.84,SW,229,0.0,6.0,69,0.01,,,0.14,weatherlink.com 1.10,2013-05-22 22:08:00,
2013-05-22 17:23:00,84.2,73.0,29.83,SW,219,2.0,7.0,68,0.01,,,0.14,weatherlink.com 1.10,2013-05-22 22:23:00,
2013-05-22 17:38:00,84.2,73.0,29.83,South,187,0.0,3.0,68,0.01,,,0.14,weatherlink.com 1.10,2013-05-22 22:38:00,
2013-05-22 17:53:00,84.4,73.0,29.83,NW,314,0.0,3.0,69,0.00,,,0.14,weatherlink.com 1.10,2013-05-22 22:53:00,
2013-05-22 18:08:00,83.9,72.0,29.83,NE,41,2.0,3.0,67,0.00,,,0.14,weatherlink.com 1.10,2013-05-22 23:08:00,
2013-05-22 18:23:00,83.2,74.0,29.83,NNE,19,4.0,5.0,74,0.00,,,0.14,weatherlink.com 1.10,2013-05-22 23:23:00,
2013-05-22 18:38:00,82.6,74.0,29.83,NE,44,0.0,3.0,76,0.00,,,0.14,weatherlink.com 1.10,2013-05-22 23:38:00,
2013-05-22 18:53:00,81.6,74.0,29.83,NNE,16,1.0,3.0,78,0.00,,,0.14,weatherlink.com 1.10,2013-05-22 23:53:00,
2013-05-22 19:08:00,81.0,74.0,29.83,NNE,16,0.0,2.0,80,0.00,,,0.14,weatherlink.com 1.10,2013-05-23 00:08:00,
2013-05-22 19:23:00,80.1,74.0,29.84,ENE,67,0.0,1.0,82,0.00,,,0.14,weatherlink.com 1.10,2013-05-23 00:23:00,
2013-05-22 19:38:00,78.9,74.0,29.84,ENE,67,0.0,1.0,84,0.00,,,0.14,weatherlink.com 1.10,2013-05-23 00:38:00,
2013-05-22 19:53:00,77.8,74.0,29.84,ENE,67,0.0,0.0,87,0.00,,,0.14,weatherlink.com 1.10,2013-05-23 00:53:00,
2013-05-22 20:08:00,76.4,73.0,29.84,ENE,67,0.0,0.0,90,0.00,,,0.14,weatherlink.com 1.10,2013-05-23 01:08:00,
2013-05-22 20:23:00,75.4,73.0,29.85,ENE,67,0.0,0.0,92,0.00,,,0.14,weatherlink.com 1.10,2013-05-23 01:23:00,
2013-05-22 20:38:00,74.8,73.0,29.85,ENE,67,0.0,0.0,93,0.00,,,0.14,weatherlink.com 1.10,2013-05-23 01:38:00,
2013-05-22 20:53:00,74.2,72.0,29.85,ENE,67,0.0,0.0,94,0.01,,,0.15,weatherlink.com 1.10,2013-05-23 01:53:00,
2013-05-22 21:08:00,73.7,72.0,29.86,ENE,67,0.0,0.0,94,0.01,,,0.15,weatherlink.com 1.10,2013-05-23 02:08:00,
2013-05-22 21:23:00,73.3,72.0,29.86,ENE,67,0.0,0.0,94,0.01,,,0.15,weatherlink.com 1.10,2013-05-23 02:23:00,
2013-05-22 21:38:00,72.9,71.0,29.87,ENE,67,0.0,0.0,95,0.01,,,0.15,weatherlink.com 1.10,2013-05-23 02:38:00,
2013-05-22 21:53:00,72.8,71.0,29.88,ENE,67,0.0,0.0,95,0.00,,,0.15,weatherlink.com 1.10,2013-05-23 02:53:00,
2013-05-22 22:23:00,72.1,71.0,29.89,ENE,67,0.0,0.0,95,0.00,,,0.15,weatherlink.com 1.10,2013-05-23 03:23:00,
2013-05-22 22:38:00,71.6,70.0,29.89,ENE,67,0.0,0.0,96,0.00,,,0.15,weatherlink.com 1.10,2013-05-23 03:38:00,
2013-05-22 22:53:00,71.4,70.0,29.90,ENE,67,0.0,0.0,96,0.00,,,0.15,weatherlink.com 1.10,2013-05-23 03:53:00,
2013-05-22 23:08:00,71.0,70.0,29.90,ENE,67,0.0,0.0,96,0.00,,,0.15,weatherlink.com 1.10,2013-05-23 04:08:00,